San Carlos, CA

10:05 PM PDT on July 21, 2017 (GMT -0700)
San Carlos

Weather History for KSQL - April, 2013

Change the Weather History Date:

Wednesday, April 3, 2013

  Actual Average Record
Temperature  
Mean Temperature 62 °F -  
Max Temperature 73 °F 69 °F 88 °F (1961)
Min Temperature 51 °F 44 °F 37 °F (1956)
Degree Days  
Heating Degree Days 3    
Growing Degree Days 12 (Base 50)    
Moisture  
Dew Point 50 °F    
Average Humidity 83    
Maximum Humidity 94    
Minimum Humidity 44    
Precipitation  
Precipitation 0.00 in - - ()
Sea Level Pressure  
Sea Level Pressure 30.10 in    
Wind  
Wind Speed 4 mph (East)    
Max Wind Speed 14 mph    
Max Gust Speed -    
Visibility 9 miles    
Events      
Averages and records for this station are not official NWS values.
T = Trace of Precipitation, MM = Missing Value Source: NWS Daily Summary

Daily Weather History Graph

Daily Weather History Graph

Search for Another Location

Airport or City:

Trip Planner

Search our weather history database for the weather conditions in past years. The results will help you decide how hot, cold, wet, or windy it might be!

Date:

Astronomy

Apr. 03, 2013 Rise Set
Actual Time 6:50 AM PDT 7:33 PM PDT
Civil Twilight 6:24 AM PDT 8:00 PM PDT
Nautical Twilight 5:53 AM PDT 8:31 PM PDT
Astronomical Twilight 5:21 AM PDT 9:03 PM PDT
Moon 2:28 AM PDT (4/3) 12:59 PM PDT (4/3)
Length of Visible Light 13h 35m
Length of Day
12h 42m
Last Quarter, 43% of the Moon is Illuminated
Apr 3
Last Quarter
Apr 10
New
Apr 18
First Quarter
Apr 25
Full
May 2
Last Quarter

Hourly Weather History & Observations

Time (PDT) Temp. Dew Point Humidity Pressure Visibility Wind Dir Wind Speed Gust Speed Precip Events Conditions
12:15 AM 51.8 °F 46.4 °F 82% 30.16 in 10.0 mi West 3.5 mph - N/A   Overcast
12:30 AM 51.8 °F 46.4 °F 82% 30.17 in 10.0 mi NNW 3.5 mph - N/A   Overcast
12:50 AM 53.6 °F 48.2 °F 82% 30.17 in 10.0 mi SE 5.8 mph - N/A   Overcast
1:15 AM 53.6 °F 50.0 °F 88% 30.17 in 10.0 mi SSE 4.6 mph - N/A   Overcast
1:30 AM 53.6 °F 50.0 °F 88% 30.16 in 9.0 mi SSE 5.8 mph - N/A   Overcast
1:50 AM 53.6 °F 50.0 °F 88% 30.16 in 8.0 mi ESE 3.5 mph - N/A   Overcast
2:15 AM 53.6 °F 50.0 °F 88% 30.15 in 10.0 mi SSE 10.4 mph - N/A   Overcast
2:30 AM 51.8 °F 50.0 °F 94% 30.15 in 10.0 mi SSE 10.4 mph - N/A   Overcast
2:50 AM 53.6 °F 50.0 °F 88% 30.15 in 10.0 mi SSE 6.9 mph - N/A   Overcast
3:15 AM 51.8 °F 50.0 °F 94% 30.14 in 10.0 mi ESE 5.8 mph - N/A   Overcast
3:30 AM 51.8 °F 50.0 °F 94% 30.14 in 10.0 mi ESE 3.5 mph - N/A   Overcast
3:50 AM 51.8 °F 50.0 °F 94% 30.14 in 10.0 mi East 4.6 mph - N/A   Overcast
4:15 AM 51.8 °F 50.0 °F 94% 30.13 in 10.0 mi ESE 4.6 mph - N/A   Overcast
4:35 AM 51.8 °F 50.0 °F 94% 30.13 in 10.0 mi ESE 4.6 mph - N/A   Overcast
4:50 AM 51.8 °F 50.0 °F 94% 30.13 in 10.0 mi East 4.6 mph - N/A   Overcast
5:15 AM 51.8 °F 50.0 °F 94% 30.12 in 10.0 mi SE 4.6 mph - N/A   Overcast
5:30 AM 51.8 °F 50.0 °F 94% 30.12 in 10.0 mi Calm Calm - N/A   Overcast
5:50 AM 51.8 °F 50.0 °F 94% 30.12 in 10.0 mi SE 3.5 mph - N/A   Overcast
6:15 AM 51.8 °F 50.0 °F 94% 30.12 in 8.0 mi Calm Calm - N/A   Overcast
6:35 AM 51.8 °F 48.2 °F 88% 30.12 in 7.0 mi SW 3.5 mph - N/A   Overcast
6:47 AM 51.8 °F 48.2 °F 88% 30.12 in 4.0 mi Calm Calm - N/A   Overcast
6:50 AM 51.8 °F 48.2 °F 88% 30.12 in 7.0 mi Calm Calm - N/A   Overcast
7:54 AM 51.8 °F 48.2 °F 88% 30.15 in 5.0 mi Calm Calm - N/A   Overcast
8:51 AM 51.8 °F 48.2 °F 88% 30.15 in 5.0 mi Calm Calm - N/A   Overcast
9:52 AM 53.6 °F 50.0 °F 88% 30.15 in 5.0 mi Calm Calm - N/A   Mostly Cloudy
10:20 AM 53.6 °F 50.0 °F 88% 30.15 in 5.0 mi Calm Calm - N/A   Mostly Cloudy
10:53 AM 57.2 °F 50.0 °F 77% 30.15 in 5.0 mi Calm Calm - N/A   Haze
11:47 AM 59.0 °F 50.0 °F 72% 30.13 in 8.0 mi Calm Calm - N/A   Scattered Clouds
12:47 PM 62.6 °F 53.6 °F 72% 30.10 in 10.0 mi NNE 5.8 mph - N/A   Scattered Clouds
1:49 PM 64.4 °F 53.6 °F 68% 30.06 in 10.0 mi NE 6.9 mph - N/A   Scattered Clouds
3:51 PM 73.4 °F 50.0 °F 44% 30.02 in 10.0 mi West 10.4 mph - N/A   Scattered Clouds
4:47 PM 71.6 °F 50.0 °F 46% 30.00 in 10.0 mi West 11.5 mph - N/A   Scattered Clouds
5:47 PM 64.4 °F 50.0 °F 59% 30.00 in 10.0 mi NW 11.5 mph - N/A   Mostly Cloudy
6:47 PM 57.2 °F 48.2 °F 72% 30.00 in 10.0 mi WNW 13.8 mph - N/A   Mostly Cloudy
7:50 PM 55.4 °F 48.2 °F 77% 30.01 in 10.0 mi NW 11.5 mph - N/A   Mostly Cloudy
8:51 PM 55.4 °F 48.2 °F 77% 30.03 in 10.0 mi NW 5.8 mph - N/A   Clear
9:15 PM 53.6 °F 50.0 °F 88% 30.03 in 10.0 mi North 4.6 mph - N/A   Clear
9:35 PM 53.6 °F 48.2 °F 82% 30.04 in 10.0 mi Calm Calm - N/A   Clear
9:50 PM 53.6 °F 50.0 °F 88% 30.04 in 10.0 mi NNW 3.5 mph - N/A   Clear
10:15 PM 55.4 °F 50.0 °F 82% 30.04 in 10.0 mi NNE 4.6 mph - N/A   Clear
10:30 PM 53.6 °F 50.0 °F 88% 30.04 in 10.0 mi Calm Calm - N/A   Clear
10:50 PM 55.4 °F 50.0 °F 82% 30.04 in 10.0 mi Calm Calm - N/A   Scattered Clouds
11:15 PM 55.4 °F 50.0 °F 82% 30.05 in 10.0 mi West 3.5 mph - N/A   Mostly Cloudy
11:35 PM 53.6 °F 48.2 °F 82% 30.05 in 10.0 mi NNW 3.5 mph - N/A   Overcast
11:50 PM 53.6 °F 48.2 °F 82% 30.05 in 10.0 mi WNW 4.6 mph - N/A   Mostly Cloudy